Weather reports worldwide

Advertisment
Meierwik, Germany (10033): temperature & dewpoint: 20.09.2020 12:00:00 - 26.09.2020 12:00:00 (CEST)Meierwik, Germany (10033): wind speed & gusts: 20.09.2020 12:00:00 - 26.09.2020 12:00:00 (CEST)Meierwik, Germany (10033): reduced air pressure: 20.09.2020 12:00:00 - 26.09.2020 12:00:00 (CEST)Meierwik, Germany (10033): visibility: 20.09.2020 12:00:00 - 26.09.2020 12:00:00 (CEST)
Date & Time tt [°C] td [°C] ff [km/h] ff [kn] fx [km/h] fx [kn] ppp [hPa] vv [km]
26.09.2020 12:00:00 13,4 7,8 11 6 - - 998,2 35
26.09.2020 11:00:00 12,7 8,0 11 6 - - 997,7 35
26.09.2020 10:00:00 11,9 7,6 11 6 - - 997,7 30
26.09.2020 09:00:00 10,9 6,1 11 6 - - 996,9 30
26.09.2020 08:00:00 9,9 5,8 14 8 - - 996,7 30
26.09.2020 07:00:00 8,9 5,7 11 6 - - 996,4 24
26.09.2020 06:00:00 8,4 5,7 7 4 - - 996,3 26
26.09.2020 05:00:00 6,7 5,6 11 6 - - 995,9 18
26.09.2020 04:00:00 8,0 5,9 11 6 - - 996,2 28
26.09.2020 03:00:00 7,8 5,7 11 6 - - 996,0 35
26.09.2020 02:00:00 8,3 5,7 11 6 - - 996,2 23
26.09.2020 01:00:00 7,1 6,5 14 8 - - 996,0 28
26.09.2020 00:00:00 7,6 6,5 11 6 - - 996,0 27
25.09.2020 23:00:00 8,0 7,4 11 6 - - 996,3 30
25.09.2020 22:00:00 8,3 7,4 11 6 - - 996,2 25
25.09.2020 21:00:00 11,0 7,4 11 6 - - 996,1 45
25.09.2020 20:00:00 12,9 7,2 22 12 - - 995,9 60
25.09.2020 19:00:00 14,2 8,5 25 14 - - 995,8 60
25.09.2020 18:00:00 14,6 8,7 22 12 - - 995,8 65
25.09.2020 17:00:00 15,5 8,5 11 6 - - 995,4 70
25.09.2020 16:00:00 15,5 10,3 14 8 - - 995,3 45
25.09.2020 15:00:00 14,4 11,1 14 8 - - 995,4 40
25.09.2020 14:00:00 13,4 10,8 14 8 - - 995,6 35
25.09.2020 13:00:00 13,4 12,0 11 6 - - 995,4 12
25.09.2020 12:00:00 13,7 11,1 14 8 - - 995,6 1,9
25.09.2020 11:00:00 14,6 11,1 18 10 - - 995,5 70
25.09.2020 10:00:00 14,4 10,4 18 10 - - 995,2 40
25.09.2020 09:00:00 14,1 9,8 22 12 - - 995,1 60
25.09.2020 08:00:00 14,0 9,2 22 12 - - 995,0 65
25.09.2020 07:00:00 14,5 8,9 22 12 - - 995,1 65
25.09.2020 06:00:00 14,6 9,7 18 10 - - 995,6 50
25.09.2020 05:00:00 11,1 9,6 14 8 - - 996,5 40
25.09.2020 04:00:00 10,8 8,7 18 10 - - 997,4 30
25.09.2020 03:00:00 11,8 7,1 22 12 - - 998,7 45
25.09.2020 02:00:00 11,4 6,8 22 12 - - 999,1 50
25.09.2020 01:00:00 11,2 7,0 22 12 - - 999,5 45
25.09.2020 00:00:00 11,6 7,1 22 12 - - 1000,3 55
24.09.2020 23:00:00 11,8 7,2 25 14 - - 1000,5 50
24.09.2020 22:00:00 12,1 7,3 25 14 - - 1001,0 50
24.09.2020 21:00:00 12,5 7,2 25 14 - - 1000,9 55
24.09.2020 20:00:00 12,7 7,8 22 12 - - 1001,3 60
24.09.2020 19:00:00 14,3 7,4 14 8 - - 1001,3 60
24.09.2020 18:00:00 15,8 6,7 18 10 - - 1001,4 55
24.09.2020 17:00:00 16,6 7,0 25 14 - - 1001,4 50
24.09.2020 16:00:00 16,5 6,6 29 16 50 27 1001,5 35
24.09.2020 15:00:00 15,9 7,5 32 18 50 27 1001,4 50
24.09.2020 14:00:00 16,6 8,0 36 19 - - 1000,8 55
24.09.2020 13:00:00 16,4 7,5 32 18 54 29 1000,3 45
24.09.2020 12:00:00 15,7 9,8 32 18 50 27 999,6 35
24.09.2020 11:00:00 15,9 10,2 25 14 - - 998,8 40
24.09.2020 10:00:00 15,9 10,6 36 19 61 33 997,7 35
24.09.2020 09:00:00 15,5 11,5 25 14 58 31 996,7 40
24.09.2020 08:00:00 15,5 13,3 25 14 - - 995,6 20
24.09.2020 07:00:00 15,1 13,2 29 16 47 25 994,8 15
24.09.2020 06:00:00 15,3 12,7 29 16 47 25 995,2 12
24.09.2020 05:00:00 15,1 11,7 25 14 - - 994,9 13
24.09.2020 04:00:00 14,5 11,8 25 14 - - 995,7 9
24.09.2020 03:00:00 13,8 11,8 22 12 - - 996,9 7
24.09.2020 02:00:00 14,1 12,4 25 14 - - 997,8 9
24.09.2020 01:00:00 13,5 13,0 14 8 - - 998,9 11
24.09.2020 00:00:00 14,5 13,8 14 8 - - 999,8 2,5
23.09.2020 23:00:00 15,6 13,2 14 8 - - 1000,2 14
23.09.2020 22:00:00 16,6 13,0 32 18 50 27 1001,3 50
23.09.2020 21:00:00 16,6 13,6 25 14 - - 1000,2 9
23.09.2020 20:00:00 17,2 13,7 14 8 - - 1000,6 11
23.09.2020 19:00:00 18,3 13,8 14 8 - - 1000,8 13
23.09.2020 18:00:00 19,6 13,6 14 8 - - 1001,3 17
23.09.2020 17:00:00 19,7 13,4 18 10 - - 1001,9 25
23.09.2020 16:00:00 20,0 14,0 22 12 - - 1002,2 13
23.09.2020 15:00:00 20,5 13,6 22 12 - - 1002,3 12
23.09.2020 14:00:00 20,6 12,2 25 14 - - 1002,4 14
23.09.2020 13:00:00 20,3 12,0 25 14 - - 1002,5 10
23.09.2020 12:00:00 19,0 11,2 18 10 - - 1002,8 10
23.09.2020 11:00:00 17,7 11,0 14 8 - - 1002,8 8
23.09.2020 10:00:00 15,2 12,0 11 6 - - 1002,9 3,9
23.09.2020 09:00:00 11,6 10,1 7 4 - - 1003,0 2,5
23.09.2020 08:00:00 11,0 9,7 7 4 - - 1003,2 3,0
23.09.2020 07:00:00 9,0 8,3 7 4 - - 1003,1 2,9
23.09.2020 06:00:00 8,2 7,6 7 4 - - 1003,4 2,2
23.09.2020 05:00:00 8,3 7,7 7 4 - - 1003,7 1,9
23.09.2020 04:00:00 8,6 8,0 4 2 - - 1004,1 1,6
23.09.2020 03:00:00 8,9 8,3 4 2 - - 1004,4 1,4
23.09.2020 02:00:00 9,3 8,7 7 4 - - 1005,0 1,4
23.09.2020 01:00:00 9,7 9,0 11 6 - - 1005,4 1,5
23.09.2020 00:00:00 10,3 9,7 7 4 - - 1005,8 2,5
22.09.2020 23:00:00 11,1 10,4 4 2 - - 1006,2 2,7
22.09.2020 22:00:00 12,0 11,2 4 2 - - 1006,6 4,3
22.09.2020 21:00:00 12,6 11,5 7 4 - - 1006,9 8
22.09.2020 20:00:00 13,9 12,4 11 6 - - 1007,1 13
22.09.2020 19:00:00 16,2 13,5 11 6 - - 1007,1 18
22.09.2020 18:00:00 21,2 10,4 11 6 - - 1007,3 26
22.09.2020 17:00:00 21,8 9,4 11 6 - - 1007,9 24
22.09.2020 16:00:00 22,7 10,1 11 6 - - 1008,6 23
22.09.2020 15:00:00 21,8 10,8 14 8 - - 1009,1 24
22.09.2020 14:00:00 20,6 9,0 7 4 - - 1009,7 16
22.09.2020 13:00:00 20,0 9,4 4 2 - - 1010,1 20
22.09.2020 12:00:00 18,8 9,9 4 2 - - 1010,5 23
22.09.2020 11:00:00 15,4 11,8 4 2 - - 1011,1 9
22.09.2020 10:00:00 12,5 12,1 4 2 - - 1011,0 5
22.09.2020 09:00:00 8,7 8,1 4 2 - - 1011,1 3,6
22.09.2020 08:00:00 7,2 6,7 4 2 - - 1011,2 1,9
22.09.2020 07:00:00 7,4 7,0 4 2 - - 1011,3 2,7
22.09.2020 06:00:00 7,6 7,1 4 2 - - 1011,8 2,7
22.09.2020 05:00:00 8,2 7,8 4 2 - - 1012,3 2,3
22.09.2020 04:00:00 8,5 8,0 4 2 - - 1012,6 2,5
22.09.2020 03:00:00 9,0 8,5 7 4 - - 1013,2 2,8
22.09.2020 02:00:00 9,1 8,6 4 2 - - 1013,6 2,4
22.09.2020 01:00:00 9,2 8,8 7 4 - - 1014,0 2,6
22.09.2020 00:00:00 9,8 9,4 7 4 - - 1014,7 2,3
21.09.2020 23:00:00 10,8 10,3 11 6 - - 1015,0 2,7
21.09.2020 22:00:00 11,7 11,2 7 4 - - 1015,4 4,2
21.09.2020 21:00:00 12,9 12,3 11 6 - - 1015,5 7
21.09.2020 20:00:00 13,8 12,5 7 4 - - 1015,4 8
21.09.2020 19:00:00 16,2 13,7 11 6 - - 1015,4 30
21.09.2020 18:00:00 19,2 12,4 11 6 - - 1015,8 30
21.09.2020 17:00:00 19,9 13,6 7 4 - - 1016,4 30
21.09.2020 16:00:00 20,8 13,5 11 6 - - 1016,8 30
21.09.2020 15:00:00 19,0 13,3 11 6 - - 1017,2 18
21.09.2020 14:00:00 17,8 13,5 7 4 - - 1017,8 17
21.09.2020 13:00:00 16,8 12,2 7 4 - - 1018,1 12
21.09.2020 12:00:00 14,7 11,8 4 2 - - 1018,6 9
21.09.2020 11:00:00 13,7 11,5 7 4 - - 1019,2 6
21.09.2020 10:00:00 12,4 11,5 7 4 - - 1019,0 4,8
21.09.2020 09:00:00 11,6 11,0 4 2 - - 1019,6 2,7
21.09.2020 08:00:00 11,5 10,9 11 6 - - 1019,3 0,8
21.09.2020 07:00:00 11,7 10,9 7 4 - - 1019,7 2,3
21.09.2020 06:00:00 12,0 11,2 7 4 - - 1020,0 4,8
21.09.2020 05:00:00 12,4 11,9 7 4 - - 1020,2 5
21.09.2020 04:00:00 12,6 12,2 7 4 - - 1020,2 4,5
21.09.2020 03:00:00 13,0 12,6 7 4 - - 1020,4 3,4
21.09.2020 02:00:00 12,9 12,5 4 2 - - 1020,6 0,3
21.09.2020 01:00:00 13,1 12,7 7 4 - - 1020,8 0,2
21.09.2020 00:00:00 13,2 12,7 7 4 - - 1021,0 0,5
20.09.2020 23:00:00 12,8 12,4 11 6 - - 1021,2 6
20.09.2020 22:00:00 10,8 10,3 18 10 - - 1021,3 8
20.09.2020 21:00:00 11,7 10,9 14 8 - - 1021,3 13
20.09.2020 20:00:00 12,2 10,8 11 6 - - 1021,0 23
20.09.2020 19:00:00 15,2 11,9 11 6 - - 1020,5 40
20.09.2020 18:00:00 17,7 11,2 11 6 - - 1020,8 45
20.09.2020 17:00:00 18,2 11,6 11 6 - - 1021,2 35
20.09.2020 16:00:00 18,3 11,9 14 8 - - 1021,4 45
20.09.2020 15:00:00 17,9 11,9 14 8 - - 1021,6 24
20.09.2020 14:00:00 17,6 10,6 14 8 - - 1021,8 30
20.09.2020 13:00:00 16,9 11,5 11 6 - - 1022,0 22
20.09.2020 12:00:00 14,3 10,7 4 2 - - 1022,3 9

tt = temperature
td = dewpoint
ff = wind speed
fx = gusts
ppp = reduced air pressure
vv = visibility

Next stations